Time,TemperatureF,DewpointF,PressureIn,WindDirection,WindDirectionDegrees,WindSpeedMPH,WindSpeedGustMPH,Humidity,HourlyPrecipIn,Conditions,Clouds,dailyrainin,SolarRadiationWatts/m^2,SoftwareType,DateUTC
2013-02-13 00:22:00,11.0,0.0,-100.00,East,82,7.0,17.0,60,0.00,,,0.13,0.000000,,2013-02-13 07:22:00,
2013-02-13 00:32:00,11.0,0.0,-100.00,East,82,7.0,17.0,60,0.00,,,0.13,0.000000,,2013-02-13 07:32:00,
2013-02-13 00:42:00,11.0,0.0,-100.00,East,82,7.0,17.0,60,0.00,,,0.13,0.000000,,2013-02-13 07:42:00,
2013-02-13 00:51:00,11.0,0.0,-100.00,East,82,7.0,17.0,60,0.00,,,0.13,0.000000,,2013-02-13 07:51:00,
2013-02-13 01:11:00,10.0,-1.0,-100.00,WNW,301,7.0,20.0,59,0.00,,,0.13,0.000000,,2013-02-13 08:11:00,
2013-02-13 01:21:00,10.0,-1.0,-100.00,WNW,301,7.0,20.0,59,0.00,,,0.13,0.000000,,2013-02-13 08:21:00,
2013-02-13 01:32:00,10.0,-1.0,-100.00,WNW,301,7.0,20.0,59,0.00,,,0.13,0.000000,,2013-02-13 08:32:00,
2013-02-13 01:43:00,10.0,-1.0,-100.00,WNW,301,7.0,20.0,59,0.00,,,0.13,0.000000,,2013-02-13 08:43:00,
2013-02-13 01:52:00,10.0,-1.0,-100.00,WNW,301,7.0,20.0,59,0.00,,,0.13,0.000000,,2013-02-13 08:52:00,
2013-02-13 02:11:00,10.0,-1.0,-100.00,NNE,29,6.0,18.0,61,0.00,,,0.13,0.000000,,2013-02-13 09:11:00,
2013-02-13 02:21:00,10.0,-1.0,-100.00,NNE,29,6.0,18.0,61,0.00,,,0.13,0.000000,,2013-02-13 09:21:00,
2013-02-13 02:31:00,10.0,-1.0,-100.00,NNE,29,6.0,18.0,61,0.00,,,0.13,0.000000,,2013-02-13 09:31:00,
2013-02-13 02:42:00,10.0,-1.0,-100.00,NNE,29,6.0,18.0,61,0.00,,,0.13,0.000000,,2013-02-13 09:42:00,
2013-02-13 02:51:00,10.0,-1.0,-100.00,NNE,29,6.0,18.0,61,0.00,,,0.13,0.000000,,2013-02-13 09:51:00,
2013-02-13 03:11:00,10.0,2.0,-100.00,NNE,22,5.0,15.0,69,0.00,,,0.13,0.000000,,2013-02-13 10:11:00,
2013-02-13 03:21:00,10.0,2.0,-100.00,NNE,22,5.0,15.0,69,0.00,,,0.13,0.000000,,2013-02-13 10:21:00,
2013-02-13 03:32:00,10.0,2.0,-100.00,NNE,22,5.0,15.0,69,0.00,,,0.13,0.000000,,2013-02-13 10:32:00,
2013-02-13 03:42:00,10.0,2.0,-100.00,NNE,22,5.0,15.0,69,0.00,,,0.13,0.000000,,2013-02-13 10:42:00,
2013-02-13 03:51:00,10.0,2.0,-100.00,NNE,22,5.0,15.0,69,0.00,,,0.13,0.000000,,2013-02-13 10:51:00,
2013-02-13 04:11:00,11.0,1.0,-100.00,NE,55,7.0,20.0,63,0.00,,,0.13,0.000000,,2013-02-13 11:11:00,
2013-02-13 04:22:00,11.0,1.0,-100.00,NE,55,7.0,20.0,63,0.00,,,0.13,0.000000,,2013-02-13 11:22:00,
2013-02-13 04:32:00,11.0,1.0,-100.00,NE,55,7.0,20.0,63,0.00,,,0.13,0.000000,,2013-02-13 11:32:00,
2013-02-13 04:42:00,11.0,1.0,-100.00,NE,55,7.0,20.0,63,0.00,,,0.13,0.000000,,2013-02-13 11:42:00,
2013-02-13 04:52:00,11.0,1.0,-100.00,NE,55,7.0,20.0,63,0.00,,,0.13,0.000000,,2013-02-13 11:52:00,
2013-02-13 05:22:00,11.0,1.0,-100.00,ESE,106,8.0,19.0,63,0.00,,,0.13,0.000000,,2013-02-13 12:22:00,
2013-02-13 05:32:00,11.0,1.0,-100.00,ESE,106,8.0,19.0,63,0.00,,,0.13,0.000000,,2013-02-13 12:32:00,
2013-02-13 05:42:00,11.0,1.0,-100.00,ESE,106,8.0,19.0,63,0.00,,,0.13,0.000000,,2013-02-13 12:42:00,
2013-02-13 05:52:00,11.0,1.0,-100.00,ESE,106,8.0,19.0,63,0.00,,,0.13,0.000000,,2013-02-13 12:52:00,
2013-02-13 06:11:00,10.0,1.0,-100.00,East,88,6.0,19.0,65,0.00,,,0.13,0.000000,,2013-02-13 13:11:00,
2013-02-13 06:21:00,10.0,1.0,-100.00,East,88,6.0,19.0,65,0.00,,,0.13,0.000000,,2013-02-13 13:21:00,
2013-02-13 06:32:00,10.0,1.0,-100.00,East,88,6.0,19.0,65,0.00,,,0.13,0.000000,,2013-02-13 13:32:00,
2013-02-13 06:42:00,10.0,1.0,-100.00,East,88,6.0,19.0,65,0.00,,,0.13,0.000000,,2013-02-13 13:42:00,
2013-02-13 06:51:00,10.0,1.0,-100.00,East,88,6.0,19.0,65,0.00,,,0.13,0.000000,,2013-02-13 13:51:00,
2013-02-13 07:11:00,11.0,1.0,-100.00,ENE,61,5.0,23.0,62,0.00,,,0.13,0.000000,,2013-02-13 14:11:00,
2013-02-13 07:21:00,11.0,1.0,-100.00,ENE,61,5.0,23.0,62,0.00,,,0.13,0.000000,,2013-02-13 14:21:00,
2013-02-13 07:32:00,11.0,1.0,-100.00,ENE,61,5.0,23.0,62,0.00,,,0.13,0.000000,,2013-02-13 14:32:00,
2013-02-13 07:42:00,11.0,1.0,-100.00,ENE,61,5.0,23.0,62,0.00,,,0.13,0.000000,,2013-02-13 14:42:00,
2013-02-13 07:52:00,11.0,1.0,-100.00,ENE,61,5.0,23.0,62,0.00,,,0.13,0.000000,,2013-02-13 14:52:00,
2013-02-13 08:11:00,13.0,1.0,-100.00,NE,50,5.0,16.0,58,0.00,,,0.13,32.000000,,2013-02-13 15:11:00,
2013-02-13 08:21:00,13.0,1.0,-100.00,NE,50,5.0,16.0,58,0.00,,,0.13,32.000000,,2013-02-13 15:21:00,
2013-02-13 08:32:00,13.0,1.0,-100.00,NE,50,5.0,16.0,58,0.00,,,0.13,32.000000,,2013-02-13 15:32:00,
2013-02-13 08:42:00,13.0,1.0,-100.00,NE,50,5.0,16.0,58,0.00,,,0.13,32.000000,,2013-02-13 15:42:00,
2013-02-13 08:51:00,13.0,1.0,-100.00,NE,50,5.0,16.0,58,0.00,,,0.13,32.000000,,2013-02-13 15:51:00,
2013-02-13 09:11:00,20.0,3.0,-100.00,NE,46,5.0,16.0,46,0.00,,,0.13,229.000000,,2013-02-13 16:11:00,
2013-02-13 09:21:00,20.0,3.0,-100.00,NE,46,5.0,16.0,46,0.00,,,0.13,229.000000,,2013-02-13 16:21:00,
2013-02-13 09:32:00,20.0,3.0,-100.00,NE,46,5.0,16.0,46,0.00,,,0.13,229.000000,,2013-02-13 16:32:00,
2013-02-13 09:42:00,20.0,3.0,-100.00,NE,46,5.0,16.0,46,0.00,,,0.13,229.000000,,2013-02-13 16:42:00,
2013-02-13 09:51:00,20.0,3.0,-100.00,NE,46,5.0,16.0,46,0.00,,,0.13,229.000000,,2013-02-13 16:51:00,
2013-02-13 10:11:00,22.0,3.0,-100.00,WSW,237,5.0,14.0,44,0.00,,,0.13,296.000000,,2013-02-13 17:11:00,
2013-02-13 10:21:00,22.0,3.0,-100.00,WSW,237,5.0,14.0,44,0.00,,,0.13,296.000000,,2013-02-13 17:21:00,
2013-02-13 10:32:00,22.0,3.0,-100.00,WSW,237,5.0,14.0,44,0.00,,,0.13,296.000000,,2013-02-13 17:32:00,
2013-02-13 10:42:00,22.0,3.0,-100.00,WSW,237,5.0,14.0,44,0.00,,,0.13,296.000000,,2013-02-13 17:42:00,
2013-02-13 10:52:00,22.0,3.0,-100.00,WSW,237,5.0,14.0,44,0.00,,,0.13,296.000000,,2013-02-13 17:52:00,
2013-02-13 11:23:00,23.0,5.0,-100.00,NNW,334,4.0,13.0,46,0.00,,,0.12,380.000000,,2013-02-13 18:23:00,
2013-02-13 11:32:00,23.0,5.0,-100.00,NNW,334,4.0,13.0,46,0.00,,,0.12,380.000000,,2013-02-13 18:32:00,
2013-02-13 11:42:00,23.0,5.0,-100.00,NNW,334,4.0,13.0,46,0.00,,,0.12,380.000000,,2013-02-13 18:42:00,
2013-02-13 11:52:00,23.0,5.0,-100.00,NNW,334,4.0,13.0,46,0.00,,,0.12,380.000000,,2013-02-13 18:52:00,
2013-02-13 12:11:00,24.0,6.0,-100.00,WNW,283,5.0,13.0,46,0.00,,,0.10,417.000000,,2013-02-13 19:11:00,
2013-02-13 12:21:00,24.0,6.0,-100.00,WNW,283,5.0,13.0,46,0.00,,,0.10,417.000000,,2013-02-13 19:21:00,
2013-02-13 12:32:00,24.0,6.0,-100.00,WNW,283,5.0,13.0,46,0.00,,,0.10,417.000000,,2013-02-13 19:32:00,
2013-02-13 12:42:00,24.0,6.0,-100.00,WNW,283,5.0,13.0,46,0.00,,,0.10,417.000000,,2013-02-13 19:42:00,
2013-02-13 12:51:00,24.0,6.0,-100.00,WNW,283,5.0,13.0,46,0.00,,,0.10,417.000000,,2013-02-13 19:51:00,
2013-02-13 13:21:00,28.0,8.0,-100.00,West,267,8.0,19.0,42,0.01,,,0.08,549.000000,,2013-02-13 20:21:00,
2013-02-13 13:31:00,28.0,8.0,-100.00,West,267,8.0,19.0,42,0.01,,,0.08,549.000000,,2013-02-13 20:31:00,
2013-02-13 13:42:00,28.0,8.0,-100.00,West,267,8.0,19.0,42,0.01,,,0.08,549.000000,,2013-02-13 20:42:00,
2013-02-13 13:52:00,28.0,8.0,-100.00,West,267,8.0,19.0,42,0.01,,,0.08,549.000000,,2013-02-13 20:52:00,
2013-02-13 14:21:00,28.0,8.0,-100.00,West,281,8.0,23.0,42,0.01,,,0.07,617.000000,,2013-02-13 21:21:00,
2013-02-13 14:31:00,28.0,8.0,-100.00,West,281,8.0,23.0,42,0.01,,,0.07,617.000000,,2013-02-13 21:31:00,
2013-02-13 14:42:00,28.0,8.0,-100.00,West,281,8.0,23.0,42,0.01,,,0.07,617.000000,,2013-02-13 21:42:00,
2013-02-13 14:52:00,28.0,8.0,-100.00,West,281,8.0,23.0,42,0.01,,,0.07,617.000000,,2013-02-13 21:52:00,
2013-02-13 15:11:00,25.0,8.0,-100.00,WNW,283,9.0,20.0,47,0.02,,,0.06,426.000000,,2013-02-13 22:11:00,
2013-02-13 15:21:00,25.0,8.0,-100.00,WNW,283,9.0,20.0,47,0.02,,,0.06,426.000000,,2013-02-13 22:21:00,
2013-02-13 15:31:00,25.0,8.0,-100.00,WNW,283,9.0,20.0,47,0.02,,,0.06,426.000000,,2013-02-13 22:31:00,
2013-02-13 15:42:00,25.0,8.0,-100.00,WNW,283,9.0,20.0,47,0.02,,,0.06,426.000000,,2013-02-13 22:42:00,
2013-02-13 15:51:00,25.0,8.0,-100.00,WNW,283,9.0,20.0,47,0.02,,,0.06,426.000000,,2013-02-13 22:51:00,
2013-02-13 16:11:00,29.0,8.0,-100.00,West,279,6.0,19.0,41,0.01,,,0.05,460.000000,,2013-02-13 23:11:00,
2013-02-13 16:21:00,29.0,8.0,-100.00,West,279,6.0,19.0,41,0.01,,,0.05,460.000000,,2013-02-13 23:21:00,
2013-02-13 16:32:00,29.0,8.0,-100.00,West,279,6.0,19.0,41,0.01,,,0.05,460.000000,,2013-02-13 23:32:00,
2013-02-13 16:42:00,29.0,8.0,-100.00,West,279,6.0,19.0,41,0.01,,,0.05,460.000000,,2013-02-13 23:42:00,
2013-02-13 16:52:00,29.0,8.0,-100.00,West,279,6.0,19.0,41,0.01,,,0.05,460.000000,,2013-02-13 23:52:00,
2013-02-13 17:21:00,26.0,8.0,-100.00,West,263,7.0,16.0,45,0.02,,,0.07,319.000000,,2013-02-14 00:21:00,
2013-02-13 17:32:00,26.0,8.0,-100.00,West,263,7.0,16.0,45,0.02,,,0.07,319.000000,,2013-02-14 00:32:00,
2013-02-13 17:42:00,26.0,8.0,-100.00,West,263,7.0,16.0,45,0.02,,,0.07,319.000000,,2013-02-14 00:42:00,
2013-02-13 17:51:00,26.0,8.0,-100.00,West,263,7.0,16.0,45,0.02,,,0.07,319.000000,,2013-02-14 00:51:00,
2013-02-13 18:21:00,19.0,7.0,-100.00,WSW,243,3.0,16.0,59,0.00,,,0.07,69.000000,,2013-02-14 01:21:00,
2013-02-13 18:32:00,19.0,7.0,-100.00,WSW,243,3.0,16.0,59,0.00,,,0.07,69.000000,,2013-02-14 01:32:00,
2013-02-13 18:41:00,19.0,7.0,-100.00,WSW,243,3.0,16.0,59,0.00,,,0.07,69.000000,,2013-02-14 01:41:00,
2013-02-13 18:51:00,19.0,7.0,-100.00,WSW,243,3.0,16.0,59,0.00,,,0.07,69.000000,,2013-02-14 01:51:00,
2013-02-13 19:21:00,16.0,6.0,-100.00,East,80,3.0,9.0,63,0.00,,,0.07,0.000000,,2013-02-14 02:21:00,
2013-02-13 19:31:00,16.0,6.0,-100.00,East,80,3.0,9.0,63,0.00,,,0.07,0.000000,,2013-02-14 02:31:00,
2013-02-13 19:41:00,16.0,6.0,-100.00,East,80,3.0,9.0,63,0.00,,,0.07,0.000000,,2013-02-14 02:41:00,
2013-02-13 19:51:00,16.0,6.0,-100.00,East,80,3.0,9.0,63,0.00,,,0.07,0.000000,,2013-02-14 02:51:00,
2013-02-13 20:22:00,14.0,4.0,-100.00,East,92,3.0,9.0,64,0.00,,,0.07,0.000000,,2013-02-14 03:22:00,
2013-02-13 20:31:00,14.0,4.0,-100.00,East,92,3.0,9.0,64,0.00,,,0.07,0.000000,,2013-02-14 03:31:00,
2013-02-13 20:42:00,14.0,4.0,-100.00,East,92,3.0,9.0,64,0.00,,,0.07,0.000000,,2013-02-14 03:42:00,
2013-02-13 20:51:00,14.0,4.0,-100.00,East,92,3.0,9.0,64,0.00,,,0.07,0.000000,,2013-02-14 03:51:00,
2013-02-13 21:12:00,14.0,4.0,-100.00,NE,34,3.0,12.0,64,0.00,,,0.07,0.000000,,2013-02-14 04:12:00,
2013-02-13 21:21:00,14.0,4.0,-100.00,NE,34,3.0,12.0,64,0.00,,,0.07,0.000000,,2013-02-14 04:21:00,
2013-02-13 21:31:00,14.0,4.0,-100.00,NE,34,3.0,12.0,64,0.00,,,0.07,0.000000,,2013-02-14 04:31:00,
2013-02-13 21:41:00,14.0,4.0,-100.00,NE,34,3.0,12.0,64,0.00,,,0.07,0.000000,,2013-02-14 04:41:00,
2013-02-13 21:51:00,14.0,4.0,-100.00,NE,34,3.0,12.0,64,0.00,,,0.07,0.000000,,2013-02-14 04:51:00,
2013-02-13 22:11:00,13.0,3.0,-100.00,NE,48,3.0,12.0,64,0.00,,,0.07,0.000000,,2013-02-14 05:11:00,
2013-02-13 22:22:00,13.0,3.0,-100.00,NE,48,3.0,12.0,64,0.00,,,0.07,0.000000,,2013-02-14 05:22:00,
2013-02-13 22:32:00,13.0,3.0,-100.00,NE,48,3.0,12.0,64,0.00,,,0.07,0.000000,,2013-02-14 05:32:00,
2013-02-13 22:42:00,13.0,3.0,-100.00,NE,48,3.0,12.0,64,0.00,,,0.07,0.000000,,2013-02-14 05:42:00,
2013-02-13 22:52:00,13.0,3.0,-100.00,NE,48,3.0,12.0,64,0.00,,,0.07,0.000000,,2013-02-14 05:52:00,
2013-02-13 23:11:00,14.0,4.0,-100.00,East,85,4.0,10.0,63,0.00,,,0.07,0.000000,,2013-02-14 06:11:00,
2013-02-13 23:21:00,14.0,4.0,-100.00,East,85,4.0,10.0,63,0.00,,,0.07,0.000000,,2013-02-14 06:21:00,
2013-02-13 23:32:00,14.0,4.0,-100.00,East,85,4.0,10.0,63,0.00,,,0.07,0.000000,,2013-02-14 06:32:00,
2013-02-13 23:42:00,14.0,4.0,-100.00,East,85,4.0,10.0,63,0.00,,,0.07,0.000000,,2013-02-14 06:42:00,
2013-02-13 23:51:00,14.0,4.0,-100.00,East,85,4.0,10.0,63,0.00,,,0.07,0.000000,,2013-02-14 06:51:00,